FW3182 Weather Reports


Display with metric or nautical units.
time (UTC)temp
F
wind
direction
speed
MPH
gust
MPH
rain 1hr
in
rain 24hr
in
rain mn
in
humidity
%
barometer
mb
20260503185203 77 292 2.0 8.0 0.00 0.00 0.00 44 1014.8
20260503184704 76 265 3.0 7.0 0.00 0.00 0.00 42 1014.9
20260503184204 76 248 4.0 12.0 0.00 0.00 0.00 42 1015.1
20260503183703 76 123 3.0 12.0 0.00 0.00 0.00 44 1015.2
20260503182704 76 212 3.0 10.0 0.00 0.00 0.00 44 1015.4
20260503182203 75 208 3.0 7.0 0.00 0.00 0.00 45 1015.5
20260503181704 75 210 6.0 14.0 0.00 0.00 0.00 44 1015.6
20260503181204 75 208 5.0 12.0 0.00 0.00 0.00 44 1015.8
20260503180703 75 136 3.0 7.0 0.00 0.00 0.00 45 1015.8
20260503180204 75 261 4.0 7.0 0.00 0.00 0.00 45 1015.9
20260503175703 75 224 2.0 7.0 0.00 0.00 0.00 47 1016.0
20260503175204 74 236 3.0 8.0 0.00 0.00 0.00 46 1016.1
20260503174704 74 273 2.0 12.0 0.00 0.00 0.00 47 1016.1
20260503174204 74 227 5.0 12.0 0.00 0.00 0.00 47 1016.3
20260503173204 73 243 4.0 9.0 0.00 0.00 0.00 48 1016.5
20260503172703 73 221 5.0 14.0 0.00 0.00 0.00 48 1016.6
20260503172203 73 224 3.0 7.0 0.00 0.00 0.00 48 1016.7
20260503171204 72 216 5.0 12.0 0.00 0.00 0.00 50 1016.8
20260503170204 72 242 4.0 10.0 0.00 0.00 0.00 49 1016.9
20260503160204 66 219 4.0 10.0 0.00 0.00 0.00 53 1017.4
20260503150704 61 176 2.0 8.0 0.00 0.00 0.00 60 1018.2
20260503150204 60 207 4.0 7.0 0.00 0.00 0.00 60 1018.2
20260503131204 49 168 0.0 2.0 0.00 0.00 0.00 80 1019.1
20260503130703 49 162 0.0 6.0 0.00 0.00 0.00 81 1019.1
20260503130204 49 192 1.0 2.0 0.00 0.00 0.00 81 1019.1
20260503110703 40 86 0.0 0.0 0.00 0.00 0.00 91 1018.5
20260503110203 41 86 0.0 0.0 0.00 0.00 0.00 91 1018.5
20260503100204 41 103 0.0 0.0 0.00 0.00 0.00 90 1018.4
20260503090203 42 108 0.0 0.0 0.00 0.00 0.00 87 1018.8
20260503081203 42 233 0.0 0.0 0.00 0.00 0.00 88 1019.1
20260503080204 42 242 0.0 0.0 0.00 0.00 0.00 87 1019.0
20260503072703 42 243 0.0 0.0 0.00 0.00 0.00 85 1019.2
20260503072204 42 243 0.0 0.0 0.00 0.00 0.00 85 1019.2
20260503071704 42 243 0.0 0.0 0.00 0.00 0.00 85 1019.1
20260503071204 42 243 0.0 0.0 0.00 0.00 0.00 84 1019.2
20260503070703 43 243 0.0 0.0 0.00 0.00 0.00 83 1019.2
20260503070204 43 243 0.0 0.0 0.00 0.00 0.00 83 1019.3
20260503060203 44 243 0.0 0.0 0.00 0.00 0.00 79 1019.8
20260503054703 44 243 0.0 0.0 0.00 0.00 0.00 80 1019.8
20260503054204 45 243 0.0 0.0 0.00 0.00 0.00 79 1019.8
20260503053704 45 243 0.0 0.0 0.00 0.00 0.00 77 1019.8
20260503053204 46 243 0.0 0.0 0.00 0.00 0.00 76 1019.7
20260503052703 47 243 0.0 0.0 0.00 0.00 0.00 75 1019.7
20260503052204 47 243 0.0 0.0 0.00 0.00 0.00 73 1019.7
20260503051703 46 243 0.0 0.0 0.00 0.00 0.00 73 1019.7
20260503051204 45 243 0.0 0.0 0.00 0.00 0.00 75 1019.7
20260503050703 44 243 0.0 0.0 0.00 0.00 0.00 78 1019.6
20260503050204 43 243 0.0 0.0 0.00 0.00 0.00 79 1019.6
20260503045704 43 243 0.0 0.0 0.00 0.00 0.00 78 1019.7
20260503045203 44 243 0.0 0.0 0.00 0.00 0.00 78 1019.6
20260503044704 44 243 0.0 0.0 0.00 0.00 0.00 78 1019.6
20260503044203 44 243 0.0 0.0 0.00 0.00 0.00 78 1019.6
20260503043203 45 243 0.0 0.0 0.00 0.00 0.00 77 1019.6
20260503042204 45 243 0.0 0.0 0.00 0.00 0.00 77 1019.6
20260503041704 45 243 0.0 0.0 0.00 0.00 0.00 75 1019.5
20260503041203 45 243 0.0 0.0 0.00 0.00 0.00 73 1019.5
20260503040203 46 243 0.0 0.0 0.00 0.00 0.00 74 1019.5
20260503035204 46 243 0.0 0.0 0.00 0.00 0.00 74 1019.6
20260503034703 46 243 0.0 0.0 0.00 0.00 0.00 74 1019.6
20260503034204 47 243 0.0 0.0 0.00 0.00 0.00 73 1019.6
20260503033704 47 243 0.0 0.0 0.00 0.00 0.00 73 1019.6
20260503033204 47 243 0.0 0.0 0.00 0.00 0.00 72 1019.6
20260503032703 48 243 0.0 0.0 0.00 0.00 0.00 72 1019.6
20260503032203 48 243 0.0 0.0 0.00 0.00 0.00 69 1019.5
20260503031203 49 243 0.0 0.0 0.00 0.00 0.00 68 1019.4
20260503030704 49 243 0.0 0.0 0.00 0.00 0.00 68 1019.4
20260503030203 49 243 0.0 0.0 0.00 0.00 0.00 70 1019.5
20260503025204 50 243 0.0 0.0 0.00 0.00 0.00 69 1019.3
20260503024703 50 243 0.0 0.0 0.00 0.00 0.00 66 1019.3
20260503024204 50 243 0.0 0.0 0.00 0.00 0.00 65 1019.2
20260503023203 51 243 0.0 0.0 0.00 0.00 0.00 64 1019.2
20260503022704 51 243 0.0 0.0 0.00 0.00 0.00 64 1019.0
20260503022203 51 243 0.0 0.0 0.00 0.00 0.00 64 1019.1
20260503021203 51 243 0.0 0.0 0.00 0.00 0.00 63 1019.0
20260503020204 52 243 0.0 0.0 0.00 0.00 0.00 63 1018.9
20260503015703 52 243 0.0 0.0 0.00 0.00 0.00 62 1018.9
20260503015204 52 243 0.0 0.0 0.00 0.00 0.00 63 1018.9
20260503014204 53 243 0.0 0.0 0.00 0.00 0.00 63 1018.8
20260503013704 54 243 0.0 0.0 0.00 0.00 0.00 61 1018.8
20260503013204 54 243 0.0 0.0 0.00 0.00 0.00 59 1018.7
20260503012704 55 243 0.0 0.0 0.00 0.00 0.00 58 1018.7
20260503011703 56 243 0.0 0.0 0.00 0.00 0.00 57 1018.5
20260503010703 59 243 0.0 0.0 0.00 0.00 0.00 54 1018.5
20260503005703 61 243 0.0 0.0 0.00 0.00 0.00 49 1018.4
20260503005204 62 243 0.0 0.0 0.00 0.00 0.00 49 1018.3
20260503004704 63 243 0.0 0.0 0.00 0.00 0.00 49 1018.3
20260503004203 63 243 0.0 0.0 0.00 0.00 0.00 47 1018.3
20260503003704 63 243 0.0 1.0 0.00 0.00 0.00 46 1018.2
20260503003203 63 242 0.0 2.0 0.00 0.00 0.00 45 1018.2
20260503002203 65 285 0.0 3.0 0.00 0.00 0.00 45 1018.2
20260503001204 65 249 0.0 1.0 0.00 0.00 0.00 43 1018.1
20260503000204 64 251 0.0 1.0 0.00 0.00 0.00 44 1018.2
20260502235704 64 255 0.0 3.0 0.00 0.00 0.00 44 1018.3
20260502235203 64 256 1.0 3.0 0.00 0.00 0.00 44 1018.3
20260502234703 64 342 1.0 6.0 0.00 0.00 0.00 44 1018.2
20260502234204 64 265 2.0 3.0 0.00 0.00 0.00 44 1018.2
20260502233704 64 280 2.0 3.0 0.00 0.00 0.00 43 1018.2
20260502233203 64 295 3.0 6.0 0.00 0.00 0.00 42 1018.2
20260502232704 64 280 2.0 5.0 0.00 0.00 0.00 43 1018.2
20260502232204 64 251 3.0 7.0 0.00 0.00 0.00 43 1018.3
20260502231703 64 248 1.0 3.0 0.00 0.00 0.00 44 1018.3
20260502231203 64 323 1.0 5.0 0.00 0.00 0.00 43 1018.3
20260502230703 64 239 3.0 6.0 0.00 0.00 0.00 41 1018.3
20260502230204 64 284 3.0 7.0 0.00 0.00 0.00 42 1018.4
20260502225704 65 266 3.0 5.0 0.00 0.00 0.00 42 1018.4
20260502225203 65 3 2.0 3.0 0.00 0.00 0.00 41 1018.3
20260502224704 65 289 2.0 6.0 0.00 0.00 0.00 42 1018.3
20260502224204 65 309 2.0 7.0 0.00 0.00 0.00 41 1018.3
20260502223704 65 249 2.0 7.0 0.00 0.00 0.00 40 1018.2
20260502223203 65 308 1.0 6.0 0.00 0.00 0.00 42 1018.3
20260502222703 64 276 2.0 6.0 0.00 0.00 0.00 42 1018.3
20260502222204 65 255 3.0 7.0 0.00 0.00 0.00 39 1018.3
20260502221704 65 291 2.0 5.0 0.00 0.00 0.00 42 1018.2
20260502221203 65 303 1.0 6.0 0.00 0.00 0.00 42 1018.3
20260502220703 65 352 1.0 7.0 0.00 0.00 0.00 42 1018.2
20260502220203 66 296 2.0 5.0 0.00 0.00 0.00 39 1018.3
20260502215704 66 308 1.0 2.0 0.00 0.00 0.00 41 1018.2
20260502215204 65 257 2.0 8.0 0.00 0.00 0.00 41 1018.3
20260502214703 64 269 1.0 12.0 0.00 0.00 0.00 42 1018.3
20260502214204 65 279 4.0 8.0 0.00 0.00 0.00 39 1018.4
20260502213203 65 224 1.0 3.0 0.00 0.00 0.00 43 1018.3
20260502212704 64 277 5.0 9.0 0.00 0.00 0.00 40 1018.3
20260502212204 65 258 3.0 7.0 0.00 0.00 0.00 41 1018.3
20260502211703 65 253 2.0 5.0 0.00 0.00 0.00 41 1018.4
20260502211203 65 276 2.0 8.0 0.00 0.00 0.00 44 1018.4
20260502210703 64 315 4.0 8.0 0.00 0.00 0.00 42 1018.5
20260502210204 65 250 3.0 7.0 0.00 0.00 0.00 42 1018.6
20260502204703 65 260 5.0 9.0 0.00 0.00 0.00 39 1018.6
20260502204204 65 348 1.0 6.0 0.00 0.00 0.00 42 1018.6
20260502203704 65 274 3.0 12.0 0.00 0.00 0.00 42 1018.8
20260502203203 65 273 3.0 6.0 0.00 0.00 0.00 42 1018.9
20260502202703 65 263 3.0 7.0 0.00 0.00 0.00 44 1018.8
20260502202204 64 285 2.0 7.0 0.00 0.00 0.00 41 1018.9
20260502201704 64 330 2.0 5.0 0.00 0.00 0.00 42 1018.8
20260502201204 64 275 1.0 6.0 0.00 0.00 0.00 41 1018.9
20260502200704 64 347 3.0 10.0 0.00 0.00 0.00 41 1019.0
20260502200204 64 318 2.0 7.0 0.00 0.00 0.00 41 1018.9
20260502195203 64 256 1.0 5.0 0.00 0.00 0.00 43 1018.9
20260502194704 63 346 2.0 12.0 0.00 0.00 0.00 43 1018.9
20260502194204 63 261 5.0 9.0 0.00 0.00 0.00 43 1018.9
20260502193703 63 231 3.0 12.0 0.00 0.00 0.00 44 1019.1
20260502192704 63 264 5.0 15.0 0.00 0.00 0.00 40 1018.9
20260502192204 64 321 3.0 8.0 0.00 0.00 0.00 41 1019.0
20260502191704 63 256 5.0 9.0 0.00 0.00 0.00 40 1019.0
20260502191204 64 284 5.0 14.0 0.00 0.00 0.00 41 1019.0
20260502190703 64 309 5.0 9.0 0.00 0.00 0.00 44 1019.1